Home > Weather > Canton > Past weeks

Flag for USA Weather for the Past 2 Weeks in Canton, Ohio, USA

Now
56 °F

Scattered clouds.


Feels Like: 52 °F
Forecast: 46 / 66 °F
Wind: 16 mph from North

Location: Akron-Canton Regional Airport

Current Time: May 5, 2016 at 8:32:35 PM

Latest Report: May 5, 2016 at 7:51 PM


Visibility: 10 mi

Pressure: 29.79 "Hg

Humidity: 53%

Dew Point: 39 °F

Location of CantonLocation

Historic Weather in Canton — Graph

°F

Canton Temperature Yesterday

Maximum temperature yesterday: 62 °F (at 12:51 PM)
Minimum temperature yesterday: 44 °F (at 5:51 AM)
Average temperature yesterday: 53 °F

High & Low Weather Summary for the Past Weeks

 TemperatureHumidityPressure
High79 °F (Apr 25, 3:51 PM)97% (May 1, 2:51 AM)30.16 "Hg (May 1, 2:51 AM)
Low35 °F (Apr 30, 4:53 AM)20% (Apr 24, 2:51 PM)29.60 "Hg (May 4, 3:51 PM)
Average54 °F70%29.92 "Hg
* Reported Apr 20 6:51 PM — May 5 6:51 PM, Canton, Weather by CustomWeather, © 2016

Note: Actual official high and low records may vary slightly from our data, if they occured in-between our weather recording intervals... More about our weather records

Advertising

Canton Weather History for the Previous 24 Hours

Scroll right to see more
 ConditionsComfort  
Time TempWeatherWind HumidityBarometerVisibility
6:51 PM
Thu, May 5
58 °FScattered clouds.20 mph50%29.78 "Hg10 mi
5:51 PM61 °FScattered clouds.21 mph50%29.76 "Hg10 mi
4:51 PM60 °FScattered clouds.18 mph56%29.75 "Hg10 mi
3:51 PM61 °FBroken clouds.17 mph60%29.74 "Hg10 mi
2:51 PM58 °FLight rain. More clouds than sun.15 mph67%29.74 "Hg8 mi
1:51 PM57 °FMostly cloudy.12 mph67%29.75 "Hg10 mi
12:51 PM58 °FMore clouds than sun.7 mph67%29.76 "Hg10 mi
11:51 AM53 °FLight rain. Cloudy.6 mph80%29.77 "Hg7 mi
10:51 AM52 °FLight rain. More clouds than sun.8 mph83%29.77 "Hg6 mi
9:51 AM51 °FMostly cloudy.7 mph83%29.76 "Hg7 mi
8:51 AM49 °FFog.3 mph90%29.74 "Hg6 mi
7:51 AM48 °FFog.8 mph89%29.73 "Hg5 mi
6:51 AM48 °FFog.6 mph89%29.70 "Hg5 mi
5:51 AM48 °FFog.5 mph89%29.68 "Hg5 mi
4:51 AM49 °FFog.6 mph90%29.68 "Hg5 mi
3:51 AM49 °FLight rain. Fog.7 mph93%29.67 "Hg3 mi
2:51 AM49 °FLight rain. Fog.6 mph90%29.67 "Hg4 mi
1:51 AM49 °FLight rain. Fog.6 mph90%29.68 "Hg4 mi
12:51 AM49 °FFog.6 mph93%29.68 "Hg5 mi
11:51 PM
Wed, May 4
49 °FLight rain. Fog.5 mph93%29.68 "Hg4 mi
10:51 PM50 °FLight rain. Mostly cloudy.No wind86%29.69 "Hg7 mi
9:51 PM50 °FLight rain. Overcast.5 mph86%29.69 "Hg9 mi
8:51 PM51 °FMostly cloudy.5 mph80%29.68 "Hg10 mi
Weather by CustomWeather, © 2016

See weather overviewHow to use our weather pages